Location: Sankt Anna
(58.3452°N, 16.7040°E)
Time: 02:58:45
(UTC+02:00)

DX 1 - Pass Details

Date: 01 June 2019
Orbit: 620 x 630 km, 98.4° (Epoch: 16 June)

Event Time Altitude Azimuth Distance (km) Brightness Sun altitude
Rises 01:59:44 0° 114° (ESE) 2,918 ? -8.4°
Reaches altitude 10° 02:02:21 10° 99° (E) 2,015 ? -8.3°
Maximum altitude 02:05:34 20° 51° (NE) 1,452 ? -8.2°
Drops below altitude 10° 02:08:48 10° 4° (N) 2,027 ? -8.1°
Sets 02:11:27 0° 348° (NNW) 2,940 ? -7.9°
